STARLINK-1092 (44969 NORAD) Tracking and Keplerian Element Data

This shows tracking and keplerian element data for the satellite.

Feedback or suggestion? Click here.




ElementValue
Catalog44969
NameSTARLINK-1092
Epoch Orbit176
Epoch Day189.91668981
Epoch Year2020
RAAN242.7137
Inclination52.993
Eccentricity9.82E-05
Argument of Perigee97.986
Mean Anonmoly317.1283
Mean Motion15.05562165
Decay Rate2.548E-05
L11 44969U 20001BH 20189.91668981 .00002548 00000-0 19403-3 0 9992
L22 44969 52.9930 242.7137 0000982 97.9860 317.1283 15.05562165 1761

Live tracking and technical data element details for STARLINK-1092 (NORAD 44969). STARLINK-1092 can be tracked NOW for your location showing map with azimuth and elevation plus other details from your city location.

Track the satellite on the map from your city or location and see movement details for azimuth, elevation, latitude, longitude, range, height, and movement on the map or in text.







IsCatalogInMostPopularTable: catalog: 44969, numindb: 39
Update: records affected: 1



GetName: 44969 STARLINK-1092

Hit Count: updated at: Fri, 10 Jul 2020 03:09:15 GMT